Theta_e
308 309 309 309 308 307 305 298 289 304 310 299 298 293 296 299 301 303 303 303 300 296 297 295 296 295 299 303 301 296 299 296 292 293 298 300 300 297 298 292 290 293 293 291
307 308 308 308 308 307 303 294 293 305 308 292 295 299 298 300 299 300 300 299 300 300 297 292 295 297 302 304 302 300 301 295 288 291 295 298 297 297 296 297 296 292 289 291
307 307 307 307 308 307 305 296 288 298 303 301 295 294 295 294 300 299 302 300 300 297 295 297 295 296 299 303 303 306 304 295 293 287 290 296 294 296 296 296 291 292 292 294
307 307 307 307 307 307 304 297 291 296 291 293 293 296 296 294 293 300 301 298 299 296 291 292 293 296 297 299 301 299 301 293 295 294 296 295 295 295 295 294 295 291 293 294
307 307 307 307 307 307 302 294 294 296 293 295 294 295 293 292 295 295 294 296 296 296 291 293 292 295 296 296 299 298 297 292 294 291 294 294 292 294 295 295 296 296 295 295
306 306 307 307 307 306 299 303 302 296 292 291 291 293 292 293 294 298 298 298 295 294 294 296 297 299 298 298 297 295 295 294 291 287 291 291 288 293 294 295 297 297 292 298
306 306 306 306 307 306 302 302 299 292 287 291 291 293 294 294 295 294 296 296 295 298 301 297 298 298 297 298 296 298 294 294 293 288 289 280 291 297 296 295 296 298 298 300
305 306 306 306 306 306 302 303 298 293 287 291 291 293 293 296 296 294 295 297 300 302 296 291 290 291 291 291 293 296 297 294 288 286 285 288 291 296 295 295 294 298 298 298
305 306 306 305 306 306 304 302 303 297 289 290 295 293 295 291 293 293 295 299 300 298 293 290 284 284 288 287 289 294 296 296 291 288 282 280 291 297 302 301 292 298 299 298
305 305 306 305 306 306 304 301 303 297 291 293 295 289 293 296 294 291 293 296 296 297 292 287 287 286 292 287 286 287 289 290 286 285 285 288 295 298 302 289 292 300 301 300
304 305 306 306 305 306 304 301 303 298 293 293 298 298 295 295 295 291 294 293 294 294 289 288 288 289 292 292 292 290 288 286 286 287 285 282 300 300 294 299 301 302 300 298
303 304 305 306 306 306 305 297 304 304 295 295 302 302 303 302 301 296 295 293 294 295 292 292 292 290 291 290 287 296 289 293 291 292 292 297 303 302 304 303 301 300 300 300
303 304 305 306 306 306 304 300 302 300 295 295 297 297 302 304 303 305 295 297 298 298 297 295 293 288 292 289 290 292 296 298 295 294 297 299 302 304 304 303 300 301 301 297
303 304 305 306 305 305 305 300 302 299 295 288 292 303 299 304 304 302 303 301 301 300 298 295 293 290 292 290 291 291 295 297 294 294 298 300 303 303 301 300 300 296 296 297
303 304 305 305 305 305 304 302 302 303 295 289 291 298 301 304 302 302 303 300 298 297 296 294 292 293 292 293 293 290 296 296 295 293 300 301 301 304 301 300 297 297 296 295
303 305 306 305 305 305 300 293 300 304 302 292 287 297 298 301 302 301 300 299 298 297 295 293 295 296 294 289 287 295 296 299 302 299 302 303 304 304 302 300 298 298 296 296
303 304 305 305 305 303 296 292 298 302 302 293 288 289 299 301 300 299 297 298 296 297 295 292 293 294 295 291 287 294 298 300 301 303 303 300 303 300 301 299 298 296 295 294
304 305 306 305 305 302 297 302 304 304 298 296 288 288 292 299 293 292 298 294 296 295 293 293 291 293 293 286 292 293 295 297 300 302 300 302 302 301 299 299 296 294 293 294
304 305 304 302 300 296 299 306 303 302 296 290 290 287 286 299 294 295 294 295 289 294 289 290 292 289 285 290 292 294 296 297 298 299 300 298 298 297 297 297 296 294 293 295
305 302 296 291 296 304 303 297 294 293 293 294 288 290 289 294 292 289 291 292 289 285 288 292 288 287 293 296 297 298 301 300 300 297 294 294 295 295 295 295 296 295 294 294
300 294 292 300 303 299 295 289 288 289 287 290 290 289 289 296 290 288 292 288 289 284 287 287 287 287 293 296 297 298 300 301 301 300 300 300 298 296 295 294 294 295 295 294
298 297 299 299 294 291 286 286 288 287 285 289 289 289 291 294 296 291 291 287 288 282 290 287 285 292 296 298 297 300 301 298 299 300 298 299 298 297 296 295 294 294 295 295
299 294 290 289 289 283 282 281 285 286 289 290 291 289 293 295 294 291 289 284 285 293 286 285 291 295 298 299 299 298 298 299 298 298 299 298 296 296 295 293 294 294 293 294
291 287 283 284 283 285 286 286 288 291 292 292 292 291 290 292 289 290 284 288 290 283 281 285 294 297 297 297 299 300 297 297 296 297 297 295 293 293 293 293 293 293 292 293
288 288 282 285 289 290 291 292 291 294 295 294 291 290 290 287 286 287 286 283 281 285 286 293 298 295 295 296 297 297 296 297 296 296 294 293 292 292 291 292 293 292 292 292
290 288 286 289 287 287 289 291 292 295 294 293 291 287 285 285 287 284 282 281 282 288 293 296 296 294 296 297 298 297 297 296 295 294 294 293 292 292 291 292 292 291 291 290
288 287 291 289 288 286 289 292 295 297 293 289 289 285 285 289 284 283 288 285 290 292 295 298 297 296 294 296 296 296 295 294 293 293 294 293 294 294 293 290 290 291 291 290
Wind_Speed
18 19 18 20 20 19 7 6 7 3 3 3 4 11 9 10 9 11 10 6 10 12 13 3 5 3 1 3 11 14 3 3 5 0 2 2 2 3 5 6 6 1 1 3
18 17 17 18 18 14 5 7 6 4 4 4 5 12 14 8 11 15 12 10 1 6 7 4 5 3 5 1 4 9 6 2 1 3 3 1 4 4 5 6 2 8 8 3
18 17 16 17 16 13 4 4 6 4 1 3 10 9 8 12 7 9 9 3 2 5 6 2 8 7 3 4 5 11 10 2 5 7 3 2 5 7 7 8 5 7 9 7
18 17 17 15 14 15 4 2 4 4 6 6 13 13 8 3 4 2 2 1 5 11 5 3 6 5 7 3 2 6 6 10 14 10 11 3 3 7 7 7 6 7 5 8
17 15 16 18 14 16 3 3 3 5 8 10 12 6 4 6 1 4 6 3 5 11 7 6 12 7 2 3 4 4 1 5 4 4 2 1 4 6 8 10 9 9 8 12
17 16 16 18 16 8 3 2 4 4 5 7 7 4 9 10 2 3 8 4 3 12 8 1 6 9 7 6 4 4 3 6 3 3 2 0 9 13 15 13 11 12 14 13
18 17 17 17 18 10 3 3 3 3 5 7 7 13 12 11 8 6 5 12 4 2 6 3 4 11 10 9 9 5 6 5 2 4 4 5 4 5 6 6 8 9 11 11
19 17 16 17 17 15 2 3 3 2 4 3 13 11 10 7 3 4 5 6 2 3 5 2 4 3 4 6 6 5 3 4 4 3 5 7 1 2 2 4 4 2 6 5
21 17 18 18 17 15 3 3 4 4 3 3 8 10 4 3 2 2 4 3 7 2 2 1 2 2 4 4 4 4 5 5 4 4 4 4 4 3 2 3 3 5 9 12
24 20 19 18 17 16 5 3 3 2 4 5 2 4 5 3 2 2 4 4 2 2 1 2 1 3 1 6 7 7 5 3 5 3 3 3 2 3 3 4 4 8 7 9
23 23 21 19 18 17 6 3 3 2 3 7 7 3 8 6 2 2 2 4 2 1 2 1 2 1 2 3 8 8 7 6 4 4 4 4 1 2 3 4 6 9 10 8
22 22 22 21 19 17 9 3 2 2 4 5 4 12 13 10 7 2 3 2 1 1 2 1 1 2 0 2 5 2 4 3 5 5 2 2 3 2 4 5 11 10 12 10
21 21 22 23 18 15 9 3 2 2 3 4 3 4 5 3 6 7 3 1 0 2 2 2 1 3 1 2 3 1 3 4 2 5 4 1 1 4 5 9 12 12 11 9
21 21 23 21 14 14 10 2 1 1 2 3 2 6 6 10 4 7 6 3 4 3 0 2 2 2 2 2 2 1 1 8 4 1 4 2 5 5 10 13 13 13 11 11
22 23 23 17 14 14 5 4 4 4 2 2 4 4 5 8 3 6 6 5 3 2 2 2 2 2 2 2 0 3 4 5 4 1 5 3 3 11 14 14 13 12 13 11
22 24 22 16 14 10 3 2 3 1 3 2 3 2 3 3 10 10 8 5 3 2 1 2 2 2 1 1 2 5 6 5 4 2 2 4 6 12 11 14 14 11 11 10
22 22 21 16 14 4 2 2 2 2 1 2 3 2 2 4 3 3 4 3 2 2 2 2 1 2 1 1 3 2 6 4 2 5 10 8 11 8 12 15 14 13 13 11
22 22 19 14 7 2 2 2 5 3 2 1 2 1 1 2 2 1 2 3 2 2 2 1 1 2 1 4 8 8 6 6 1 9 4 8 12 15 14 14 13 13 11 9
23 20 11 1 2 2 2 7 5 2 2 1 1 2 2 2 2 2 2 1 2 2 0 1 2 2 5 5 5 4 3 4 4 9 10 13 15 15 14 13 11 10 9 7
19 4 3 2 2 11 6 1 1 2 2 2 2 1 2 3 2 1 1 1 2 0 1 2 2 4 9 8 6 3 4 8 12 14 10 13 15 14 11 10 8 9 8 7
3 4 2 3 9 2 1 1 1 1 1 2 2 3 2 4 1 2 2 1 1 2 3 2 1 3 2 2 6 6 2 7 6 2 12 13 17 13 12 10 9 9 9 8
4 4 4 2 2 1 2 2 0 2 3 1 1 2 1 2 1 1 1 2 0 2 3 2 2 2 4 3 5 7 8 10 11 13 15 16 13 12 12 11 10 9 9 8
1 1 2 2 1 1 3 3 2 2 2 2 2 2 1 1 3 1 1 1 0 2 2 2 2 5 4 6 10 11 11 11 15 15 14 16 15 13 12 11 9 9 8 7
2 3 4 1 2 1 1 1 2 2 2 2 2 2 3 3 1 1 0 1 1 2 2 2 1 2 6 8 11 12 11 12 15 16 16 16 15 13 12 10 9 9 8 7
2 2 3 2 2 2 3 2 3 3 2 3 2 2 1 1 1 1 1 2 3 3 1 1 2 4 7 9 10 13 13 13 14 14 14 15 14 13 12 10 10 9 8 8
1 2 4 3 4 2 2 2 2 1 3 2 1 2 2 2 1 3 4 3 4 1 1 2 5 7 6 8 9 12 12 13 12 12 13 13 13 12 11 10 9 9 9 9
2 3 3 5 3 3 3 2 1 1 0 1 1 2 1 2 2 3 3 3 3 4 5 4 9 9 4 7 11 12 12 12 12 11 11 11 11 11 10 10 9 9 9 9
Wind_Direction
334 334 337 336 332 332 330 322 307 138 258 254 233 241 234 232 251 256 265 256 226 190 281 229 333 201 334 343 147 164 160 159 223 310 357 333 101 148 180 224 193 152 326 215
332 332 334 333 330 342 323 313 283 301 250 262 293 304 266 282 290 295 262 234 206 146 188 205 223 275 345 172 115 148 157 19 75 200 189 242 221 143 95 87 90 213 228 221
333 334 336 333 334 347 319 295 310 290 286 314 345 328 287 233 287 309 298 254 136 44 140 69 206 185 349 345 88 99 77 83 175 199 359 285 201 192 182 196 225 240 235 237
334 335 333 331 341 337 304 208 264 284 314 331 315 292 293 324 299 245 300 220 247 151 33 79 226 152 140 94 128 85 150 174 194 195 200 190 158 177 172 200 222 226 254 218
332 331 332 331 340 328 254 276 282 347 289 293 315 303 306 315 347 311 327 316 133 110 118 264 290 131 162 137 100 102 188 118 154 129 105 210 224 204 212 225 234 248 246 252
327 328 331 335 329 341 285 333 301 296 277 285 298 300 341 321 325 209 60 343 117 124 126 349 321 74 76 97 106 109 86 131 133 192 48 293 262 243 234 232 230 243 251 258
328 322 326 327 331 336 283 287 285 282 287 285 294 303 311 307 318 262 64 32 344 39 67 356 277 61 61 63 56 41 123 106 80 120 142 221 55 305 280 263 257 241 254 251
324 324 328 326 327 331 276 292 272 284 278 295 292 298 306 307 39 39 132 204 239 93 158 220 176 82 111 55 34 44 40 110 116 177 200 325 130 82 133 188 176 271 260 154
323 326 328 325 326 327 297 260 255 255 289 230 313 321 311 343 59 12 20 22 130 94 289 199 153 133 116 124 94 58 75 91 98 161 196 216 102 40 344 219 225 115 138 130
328 327 321 325 325 322 316 270 268 248 287 263 267 286 342 1 73 63 332 335 35 209 173 76 107 117 108 154 149 156 151 153 164 149 229 264 282 299 288 213 68 133 125 115
326 326 326 320 322 317 330 267 238 248 253 287 265 284 304 329 325 326 127 209 174 342 75 117 106 120 98 157 140 161 155 161 165 160 196 253 81 220 242 72 106 121 109 91
321 323 322 330 314 316 329 264 200 226 241 274 306 275 267 262 272 334 355 14 21 72 91 63 113 129 53 56 157 167 149 178 172 186 162 17 329 354 89 118 122 104 101 95
321 319 320 318 313 319 322 261 258 238 263 277 274 292 332 235 228 221 270 195 162 84 5 115 108 107 269 153 102 53 120 146 113 164 114 347 352 90 110 124 115 115 104 104
326 322 320 317 314 322 323 231 272 218 285 278 305 347 331 320 282 207 211 123 103 100 1 76 83 100 254 79 43 300 356 158 162 218 215 225 188 129 120 110 104 102 93 94
324 323 323 321 324 329 314 245 219 206 248 316 289 324 293 337 108 115 111 97 101 71 89 62 83 78 180 85 237 237 206 160 186 130 160 175 80 146 138 128 122 115 114 106
324 322 327 323 317 327 306 328 13 205 185 273 297 342 304 72 92 86 74 64 45 63 53 64 91 71 322 149 224 255 219 225 250 132 146 129 112 135 145 130 126 117 110 113
322 317 321 317 315 300 252 254 261 333 321 243 287 333 72 43 54 51 45 40 54 52 73 57 40 100 314 181 245 124 90 99 265 191 130 112 155 139 130 127 121 114 109 102
317 314 313 316 335 336 305 316 259 220 231 257 302 327 224 84 110 91 21 53 26 56 86 143 203 149 164 250 243 273 297 305 29 149 66 110 120 124 127 127 129 121 122 119
320 317 322 17 36 322 15 349 356 18 41 309 343 347 91 176 67 88 98 103 96 10 43 223 179 173 229 240 266 268 181 211 121 100 112 122 126 130 130 130 130 129 130 123
319 333 359 25 300 312 318 18 19 25 345 4 38 296 48 342 77 79 104 354 87 198 159 119 218 256 269 258 249 285 120 120 132 114 115 123 130 131 132 126 129 128 125 118
359 354 329 301 306 298 355 14 10 358 87 22 37 9 38 26 61 95 3 93 91 302 101 270 240 258 254 40 207 218 201 157 183 34 143 150 140 137 130 125 121 122 123 113
304 296 290 287 312 309 360 16 39 31 37 113 6 56 23 10 12 83 76 35 289 355 131 233 245 245 309 265 162 145 148 123 117 118 123 126 126 121 121 120 116 112 112 119
275 264 301 341 336 324 16 20 57 29 0 160 163 92 7 134 33 76 102 267 37 156 246 263 285 321 19 139 129 108 103 109 113 115 116 114 111 112 112 108 106 111 105 105
1 342 321 335 310 291 303 281 312 302 260 166 119 71 27 39 30 30 272 63 261 240 228 249 320 41 111 123 119 115 111 122 122 119 119 116 110 110 109 109 114 111 103 99
329 308 303 280 291 252 273 230 256 250 87 128 116 111 100 139 170 258 308 226 251 254 278 358 48 87 125 116 116 120 124 123 118 121 119 119 121 120 112 106 105 107 104 96
286 252 272 292 300 317 304 253 168 98 118 109 102 148 189 179 192 194 202 227 233 279 82 75 116 100 110 110 126 121 121 119 117 118 126 129 126 124 118 113 107 99 96 87
283 269 261 281 264 270 266 270 84 105 123 112 173 208 49 110 210 222 204 228 357 307 235 150 123 102 97 128 123 118 118 117 120 127 126 120 123 131 131 120 109 100 92 88